Regional Weather Roundup
Issued by NWS New Orleans/Baton Rouge, LA

Home | Current Version | Previous Version | Text Only | Print | Product List | Glossary On
Versions: 1 2 3 4 5 6 7 8 9 10 11 12 13 14 15 16 17 18 19 20 21 22 23 24 25 26 27 28 29 30 31 32 33 34 35 36 37 38 39 40 41 42 43 44 45 46 47 48 49 50
411
ASUS44 KLIX 210505
RWRLIX
NEW ORLEANS REGIONAL WEATHER ROUNDUP
NATIONAL WEATHER SERVICE NEW ORLEANS LA
1200 AM CDT SUN SEP 21 2014

NOTE: "FAIR" INDICATES FEW OR NO CLOUDS BELOW 12,000 FEET WITH NO
      SIGNIFICANT WEATHER AND/OR OBSTRUCTIONS TO VISIBILITY.
      SKY/WX - SKY CONDITION AND SIGNIFICANT WEATHER.
      TMP - AIR TEMPERATURE.     DP    - DEWPOINT TEMPERATURE.
      RH  - RELATIVE HUMIDITY.   PRES  - PRESSURE.
      HI  - HEAT INDEX.          WCI   - WIND CHILL INDEX.

*  THESE STATIONS ARE NOT NWS OR FAA STATIONS AND ARE NOT UNDER
   NWS QUALITY CONTROL.

LAZ038-040-048-061>063-065>067-069-210600-
SOUTHEAST LOUISIANA

CITY           SKY/WX    TMP DP  RH WIND       PRES   REMARKS
N.O. AUDUBON     N/A     78  73  82 MISG        N/A
N.O. INTL ARPT CLEAR     79  69  71 E5        29.98F
N.O. LAKEFRONT CLEAR     80  69  69 E10       29.98F
N.O. DOWNTOWN*   N/A     79  66  65 SE3       29.98F
SLIDELL        CLEAR     72  68  87 CALM      29.98F
BATON ROUGE    CLEAR     73  70  90 NE3       29.99S
BOOTHVILLE     CLEAR     80  72  76 E7        29.97F
BELLE CHASSE   CLEAR     74  69  85 NE3       29.97F
BOGALUSA*        N/A     69  66  88 N3        30.02S
GALLIANO*      NOT AVBL
NEW ROADS*       N/A     72  72  98 CALM      29.99S
GONZALES*        N/A     71  71 100 CALM      29.98S
HAMMOND*       NOT AVBL
HOUMA*         CLEAR     71  67  86 CALM      29.97F FOG
PORT FOURCHON* PTCLDY    81  70  69 E10G17    29.99F

$$

MSZ070-080>082-210600-
SOUTHERN MISSISSIPPI

CITY           SKY/WX    TMP DP  RH WIND       PRES   REMARKS
MCCOMB         PTCLDY    73  67  81 NE5       30.02S
GULFPORT       CLEAR     74  67  78 E3        29.98F
BILOXI         CLEAR     75  67  76 E7        29.98F
PASCAGOULA     CLEAR     67  65  93 CALM      29.98F

$$

COASTAL OBSERVATIONS
LAKE AND NEARSHORE STATIONS

STATION/POSITION TIME  TEMP    WIND        PRES    WAVE
                       AIR SEA DIR/SP/G            HT/PER
                 (UTC) (F)     (DEG/KT/KT) (MB)    (FT/S)
PASCAGOULA       0500   76      50/  8/ 10 1014.8
WAVELAND YACHT   0500   78      80/  7/  9 1014.6
GRAND ISLE       0500   80 82   90/ 10/ 14 1015.3
SOUTHWEST PASS   0500   81 89   70/ 16/ 20 1014.9
NEW CANAL        0500   78 81   CALM  /  3 1015.6
SHELL BEACH      0500   80 79   70/ 12/ 14 1014.9

OFFSHORE STATIONS

STATION/POSITION TIME  TEMP    WIND        PRES    WAVE
                       AIR SEA DIR/SP/G            HT/PER
                 (UTC) (F)     (DEG/KT/KT) (MB)    (FT/S)
64 S DAUPHIN ISL 0353   81 84   80/ 14/ 17 1014.9    4/ 6

$$




USA.gov is the U.S. government's official web portal to all federal, state and local government web resources and services.